SCP
0 0 0 0 0 0 0 0 0 0 0 0 0 0 0 0 0 0 0 0 0 0 0 0 0 0 0 0 0 0 0 0 0 0 0 0 0 0 0 0 0 0 0
0 0 0 0 0 0 0 0 0 0 0 0 0 0 0 0 0 0 0 0 0 0 0 0 0 0 0 0 0 0 0 0 0 0 0 0 0 0 0 0 0 0 0
0 0 0 0 0 0 0 0 0 0 0 0 0 0 0 0 0 0 0 0 0 0 0 0 0 0 0 0 0 0 0 0 0 0 0 0 0 0 0 0 0 0 0
0 0 0 0 0 0 0 0 0 0 0 0 0 0 0 0 0 0 0 0 0 0 0 0 0 0 0 0 0 0 0 0 0 0 0 0 0 0 0 0 0 0 0
0 0 0 0 0 0 0 0 0 0 0 0 0 0 0 0 0 0 0 0 0 0 0 0 0 0 0 0 0 0 0 0 0 0 0 0 0 0 0 0 0 0 0
0 0 0 0 0 0 0 0 0 0 0 0 0 0 0 0 0 0 0 0 0 0 0 0 0 0 0 0 0 0 0 0 0 0 0 0 0 0 0 0 0 0 0
0 0 0 0 0 0 0 0 0 0 0 0 0 0 0 0 0 0 0 0 0 0 0 0 0 0 0 0 0 0 0 0 0 0 0 0 0 0 0 0 0 0 0
0 0 0 0 0 0 0 0 0 0 0 0 0 0 0 0 0 0 0 0 0 0 0 0 0 0 0 0 0 0 0 0 0 0 0 0 0 0 0 0 0 0 0
0 0 0 0 0 0 0 0 0 0 0 0 0 0 0 0 0 0 0 0 0 0 0 0 0 0 0 0 0 0 0 0 0 0 0 0 0 0 0 0 0 0 0
0 0 0 0 0 0 0 0 0 0 0 0 0 0 0 0 0 0 0 0 0 0 0 0 0 0 0 0 0 0 0 0 0 0 0 0 0 0 0 0 0 0 0
0 0 0 0 0 0 0 0 0 0 0 0 0 0 0 0 0 0 0 0 0 0 0 0 0 0 0 0 0 0 0 0 0 0 0 0 0 0 0 0 0 0 0
0 0 0 0 0 0 0 0 0 0 0 0 0 0 0 0 0 0 0 0 0 0 0 0 0 0 0 0 0 0 0 0 0 0 0 0 0 0 0 0 0 0 0
0 0 0 0 0 0 0 0 0 0 0 0 0 0 0 0 0 0 0 0 0 0 0 0 0 0 0 0 0 0 0 0 0 0 0 0 0 0 0 0 0 0 0
0 0 0 0 0 0 0 0 0 0 0 0 0 0 0 0 0 0 0 0 0 0 0 0 0 0 0 0 0 0 0 0 0 0 0 0 0 0 0 0 0 0 0
0 0 0 0 0 0 0 0 0 0 0 0 0 0 0 0 0 0 0 0 0 0 0 0 0 0 0 0 0 0 0 0 0 0 0 0 0 0 0 0 0 0 0
0 0 0 0 0 0 0 0 0 0 0 0 0 0 0 0 0 0 0 0 0 0 0 0 0 0 0 0 0 0 0 0 0 0 0 0 0 0 0 0 0 0 0
0 0 0 0 0 0 0 0 0 0 0 0 0 0 0 0 0 0 0 0 0 0 0 0 0 0 0 0 0 0 0 0 0 0 0 0 0 0 0 0 0 0 0
0 0 0 0 0 0 0 0 0 0 0 0 0 0 0 0 0 0 0 0 0 0 0 0 0 0 0 0 0 0 0 0 0 0 0 0 0 0 0 0 0 0 0
0 0 0 0 0 0 0 0 0 0 0 0 0 0 0 0 0 0 0 0 0 0 0 0 0 0 0 0 0 0 0 0 0 0 0 0 0 0 0 0 0 0 0
0 0 0 0 0 0 0 0 0 0 0 0 0 0 0 0 0 0 0 0 0 0 0 0 0 0 0 0 0 0 0 0 0 0 0 0 0 0 0 0 0 0 0
0 0 0 0 0 0 0 0 0 0 0 0 0 0 0 0 0 0 0 0 0 0 0 0 0 0 0 0 0 0 0 0 0 0 0 0 0 0 0 0 0 0 0
0 0 0 0 0 0 0 0 0 0 0 0 0 0 0 0 0 0 0 0 0 0 0 0 0 0 0 0 0 0 0 0 0 0 0 0 0 0 0 0 0 0 0
0 0 0 0 0 0 0 0 0 0 0 0 0 0 0 0 0 0 0 0 0 0 0 0 0 0 0 0 0 0 0 0 0 0 0 0 0 0 0 0 0 0 0
0 0 0 0 0 0 0 0 0 0 0 0 0 0 0 0 0 0 0 0 0 0 0 0 0 0 0 0 0 0 0 0 0 0 0 0 0 0 0 0 0 0 0
0 0 0 0 0 0 0 0 0 0 0 0 0 0 0 0 0 0 0 0 0 0 0 0 0 0 0 0 0 0 0 0 0 0 0 0 0 0 0 0 0 0 0
0 0 0 0 0 0 0 0 0 0 0 0 0 0 0 0 0 0 0 0 0 0 0 0 0 0 0 0 0 0 0 0 0 0 0 0 0 0 0 0 -0 0 0
Wind_Speed_500mb
3 2 2 2 3 2 2 1 3 6 6 6 6 7 8 9 12 15 19 22 24 26 29 33 37 40 41 41 40 37 34 33 31 30 29 30 32 31 33 34 36 31 29
9 6 5 3 3 3 2 3 4 7 7 6 5 6 9 12 16 20 22 25 29 33 35 37 39 40 40 37 40 43 49 51 49 49 46 38 38 38 40 43 45 39 37
16 14 12 9 9 8 8 8 8 7 7 8 9 10 13 16 21 26 30 32 36 40 41 41 42 43 43 44 40 41 43 47 51 53 54 56 55 53 50 48 47 46 44
22 20 18 15 16 14 14 13 14 14 13 14 15 17 20 24 29 33 36 39 42 42 42 43 41 46 47 49 49 46 44 45 51 52 62 66 68 74 67 68 65 55 58
23 24 21 21 21 20 18 17 17 19 19 21 23 25 25 28 31 34 39 41 40 38 35 37 43 41 42 46 48 51 50 52 48 51 53 60 60 66 70 76 78 72 75
26 24 22 23 24 21 20 20 20 22 24 25 28 28 30 33 36 41 41 35 28 37 41 39 45 49 48 47 45 44 45 46 50 52 53 59 61 63 68 64 76 78 91
31 30 27 24 19 18 17 23 24 28 29 33 38 39 37 41 38 38 31 39 37 38 40 41 47 49 44 45 45 47 49 52 53 54 57 60 60 65 68 69 70 77 76
38 37 34 31 30 27 25 26 30 32 33 37 39 40 37 46 38 39 50 43 44 46 44 45 49 50 52 50 47 51 54 57 59 58 58 59 65 71 74 77 76 76 74
45 44 40 36 35 33 32 32 34 37 33 36 35 35 22 17 48 49 51 45 51 46 42 51 52 58 55 54 57 53 52 53 53 55 59 62 66 72 74 76 75 78 81
47 44 41 40 37 37 38 40 37 36 34 34 38 33 33 43 37 34 40 45 54 56 64 57 53 59 50 47 45 44 46 45 49 52 53 56 60 65 69 70 73 75 78
35 37 40 40 40 41 38 32 32 30 29 29 30 29 34 32 34 37 49 48 66 65 62 55 55 56 55 49 46 47 47 51 56 57 59 63 66 70 75 77 74 79 80
30 32 39 40 41 40 37 34 30 27 26 28 30 32 32 34 43 42 52 63 57 60 59 47 47 51 48 49 52 62 69 70 67 66 68 73 76 75 78 82 77 83 87
37 33 35 36 36 33 31 28 28 28 25 23 19 24 27 33 39 48 55 59 57 70 56 51 51 32 39 63 68 71 74 75 75 75 77 79 81 79 75 77 77 78 80
39 33 29 35 40 29 28 28 29 26 26 27 22 27 33 35 37 38 42 50 65 57 54 52 40 33 50 63 66 70 74 75 78 78 79 80 81 81 83 84 85 86 82
36 35 31 26 25 28 30 26 24 23 27 24 25 25 23 23 27 31 35 42 49 48 59 43 43 71 72 76 74 75 74 73 75 75 74 76 77 78 79 80 80 78 75
37 36 36 33 33 30 29 30 24 20 18 15 15 17 20 23 26 30 34 38 43 51 51 66 75 80 83 86 84 81 80 79 76 75 75 75 74 75 71 69 71 74 76
45 45 45 35 33 30 26 20 15 13 11 12 14 18 21 25 30 34 38 42 45 52 63 78 78 82 84 84 83 81 80 77 78 78 77 73 69 68 63 62 62 64 65
41 36 33 30 27 24 20 16 12 10 10 13 17 21 26 31 35 40 44 48 53 55 62 75 78 78 80 81 82 81 80 79 81 82 83 71 66 65 58 74 69 64 65
39 37 32 30 27 23 17 12 9 10 15 19 23 26 30 36 40 44 46 48 51 53 56 64 74 75 76 79 85 84 87 88 87 84 75 84 78 81 68 63 59 58 60
39 38 36 31 25 18 12 9 10 14 18 20 24 30 34 36 38 39 40 43 45 50 54 60 66 72 76 79 80 91 99 91 94 92 76 78 83 74 53 53 57 60 61
44 40 34 28 21 15 11 10 13 16 19 24 28 30 30 32 32 34 37 42 47 51 55 59 64 70 76 81 82 85 89 95 93 74 76 91 84 66 65 59 61 64 64
43 37 32 25 19 13 11 15 17 20 23 25 25 26 25 25 28 32 37 41 44 49 52 54 57 65 69 71 77 78 82 85 87 84 96 89 73 68 66 60 54 59 69
40 36 29 22 16 13 15 18 21 23 24 23 20 18 20 26 31 37 42 47 49 50 50 48 58 59 65 65 71 73 77 80 78 80 71 81 69 74 59 40 59 57 52
37 32 25 20 16 15 18 20 22 22 21 18 15 19 24 30 37 44 48 49 51 52 53 55 54 54 52 61 58 58 66 69 71 67 59 64 73 69 45 38 57 45 44
36 29 24 18 17 19 21 22 22 21 16 15 17 22 28 33 38 43 48 51 54 55 53 50 48 48 54 49 47 52 60 63 72 71 48 54 64 58 41 47 53 41 39
34 28 22 22 22 22 23 23 21 18 16 18 22 29 37 41 44 45 47 52 58 60 60 60 59 57 51 49 42 39 49 54 56 62 49 60 49 51 39 50 48 51 38
Wind_Direction_500mb
184 153 111 106 96 93 78 55 7 356 359 11 13 23 30 28 11 3 358 355 353 351 349 345 342 340 339 337 334 330 327 323 321 318 312 308 306 304 299 290 287 284 276
226 232 239 245 242 246 265 304 322 341 346 349 349 359 356 350 343 339 338 339 339 339 337 334 331 328 325 317 314 315 318 320 318 320 319 317 316 316 311 301 293 284 272
236 241 241 252 262 270 280 285 289 302 317 322 320 318 321 321 323 326 327 330 332 331 328 326 322 319 316 313 306 303 303 302 300 303 306 306 307 305 304 305 302 296 281
245 248 250 255 259 265 273 283 287 291 295 297 296 299 308 312 315 317 319 321 322 322 323 318 319 318 314 313 310 306 299 298 296 293 293 297 292 299 297 293 291 295 289
251 253 255 254 259 261 267 277 288 293 292 294 296 299 304 313 319 315 313 315 318 319 321 323 317 315 312 308 307 306 302 297 294 292 292 290 290 293 281 276 287 285 281
255 260 263 260 260 267 280 291 294 302 308 304 300 304 306 309 302 306 312 318 323 317 315 316 314 322 312 310 308 307 306 303 301 301 297 294 294 294 289 284 295 291 270
253 258 262 267 270 285 292 285 292 297 299 301 305 302 298 301 307 314 327 323 316 321 320 324 314 319 315 313 305 303 304 304 299 297 298 296 294 293 293 294 286 289 303
254 257 259 265 270 273 276 280 285 292 296 296 299 311 308 310 316 317 318 327 330 325 324 325 326 321 321 315 312 306 303 300 299 298 294 289 289 290 291 286 287 285 283
256 259 263 264 267 271 273 277 279 277 281 287 294 300 299 308 301 319 321 321 315 317 319 319 321 318 318 314 310 307 306 303 301 300 298 297 294 292 292 291 290 286 285
251 255 260 263 263 265 269 274 280 288 286 289 296 297 305 303 306 311 313 310 314 316 314 320 321 325 324 324 321 320 317 308 304 302 305 297 294 292 291 293 293 292 288
254 250 250 252 255 257 261 263 272 276 286 289 295 302 299 300 309 320 317 314 311 313 317 325 328 332 329 326 323 319 324 323 316 312 307 303 301 297 295 293 292 290 288
249 250 250 251 252 256 262 265 266 272 279 281 277 280 288 303 303 306 305 309 314 321 321 337 333 331 325 325 324 319 317 317 317 307 300 296 296 293 291 292 292 290 290
252 256 253 250 251 252 253 258 265 269 267 269 271 291 291 291 297 301 304 310 314 320 330 335 339 328 324 326 322 319 318 318 316 312 310 306 306 304 299 296 290 289 289
248 245 244 242 250 249 255 259 263 256 277 279 277 280 286 291 298 308 315 318 319 323 328 337 340 327 314 323 321 317 316 316 314 313 310 307 305 303 297 293 294 292 289
243 242 231 231 244 248 255 243 244 253 260 269 273 282 293 303 310 313 318 325 327 323 320 333 320 317 324 326 326 324 323 321 319 317 314 310 308 303 300 296 295 296 294
233 234 235 237 239 228 226 239 246 248 256 267 280 293 306 311 317 320 322 323 322 319 312 314 323 328 330 331 333 332 331 329 329 327 325 324 319 315 310 300 294 295 293
231 233 236 218 219 225 224 222 222 237 258 280 302 312 317 321 324 324 325 325 324 321 319 321 327 329 330 332 333 333 333 333 333 335 330 327 323 324 318 317 314 302 297
226 215 201 202 199 198 198 206 222 251 286 303 308 316 322 325 327 329 329 329 330 331 328 326 329 331 334 334 333 333 335 337 335 336 336 331 333 326 324 320 315 311 306
196 189 188 188 190 192 197 214 245 282 298 311 318 320 328 331 332 334 336 335 332 332 331 329 330 333 334 336 335 335 336 336 338 339 337 339 333 331 330 323 322 322 317
189 184 184 189 190 195 209 237 276 299 306 313 324 328 330 332 333 333 334 333 334 333 334 332 333 334 337 337 335 335 333 336 335 339 334 334 336 338 338 335 327 321 324
184 186 189 188 191 200 226 268 288 300 315 323 325 327 328 329 333 336 337 339 338 335 336 336 335 334 336 335 337 335 332 332 333 334 329 334 338 343 345 339 332 332 329
188 188 188 191 199 219 261 286 299 308 314 315 317 322 328 333 337 336 337 337 336 336 337 335 333 332 332 334 333 332 330 326 326 331 332 331 343 344 346 340 340 338 335
190 191 192 199 217 247 273 289 297 301 303 303 308 318 327 329 332 333 333 335 337 337 334 329 328 331 329 330 328 326 318 319 320 327 335 330 344 341 347 348 349 351 356
193 197 202 216 239 265 278 282 285 288 290 298 307 318 324 327 331 330 330 333 334 334 333 329 325 325 323 320 322 312 316 323 326 334 338 328 346 342 356 1 355 360 6
200 206 215 232 252 260 269 273 276 280 284 293 314 321 325 328 328 329 329 330 332 332 329 327 324 318 317 318 318 318 327 328 328 335 339 334 348 347 4 5 358 1 2
207 215 229 241 248 256 264 269 270 267 279 297 311 322 329 333 334 335 334 334 334 333 330 328 323 321 324 325 326 320 323 320 322 328 334 334 354 360 344 353 357 7 1
Wind_Speed_850mb
3 2 2 2 3 2 2 1 3 6 6 6 6 7 8 9 12 15 19 22 24 26 29 33 37 40 41 41 40 37 34 33 31 30 29 30 32 31 33 34 36 31 29
9 6 5 3 3 3 2 3 4 7 7 6 5 6 9 12 16 20 22 25 29 33 35 37 39 40 40 37 40 43 49 51 49 49 46 38 38 38 40 43 45 39 37
16 14 12 9 9 8 8 8 8 7 7 8 9 10 13 16 21 26 30 32 36 40 41 41 42 43 43 44 40 41 43 47 51 53 54 56 55 53 50 48 47 46 44
22 20 18 15 16 14 14 13 14 14 13 14 15 17 20 24 29 33 36 39 42 42 42 43 41 46 47 49 49 46 44 45 51 52 62 66 68 74 67 68 65 55 58
23 24 21 21 21 20 18 17 17 19 19 21 23 25 25 28 31 34 39 41 40 38 35 37 43 41 42 46 48 51 50 52 48 51 53 60 60 66 70 76 78 72 75
26 24 22 23 24 21 20 20 20 22 24 25 28 28 30 33 36 41 41 35 28 37 41 39 45 49 48 47 45 44 45 46 50 52 53 59 61 63 68 64 76 78 91
31 30 27 24 19 18 17 23 24 28 29 33 38 39 37 41 38 38 31 39 37 38 40 41 47 49 44 45 45 47 49 52 53 54 57 60 60 65 68 69 70 77 76
38 37 34 31 30 27 25 26 30 32 33 37 39 40 37 46 38 39 50 43 44 46 44 45 49 50 52 50 47 51 54 57 59 58 58 59 65 71 74 77 76 76 74
45 44 40 36 35 33 32 32 34 37 33 36 35 35 22 17 48 49 51 45 51 46 42 51 52 58 55 54 57 53 52 53 53 55 59 62 66 72 74 76 75 78 81
47 44 41 40 37 37 38 40 37 36 34 34 38 33 33 43 37 34 40 45 54 56 64 57 53 59 50 47 45 44 46 45 49 52 53 56 60 65 69 70 73 75 78
35 37 40 40 40 41 38 32 32 30 29 29 30 29 34 32 34 37 49 48 66 65 62 55 55 56 55 49 46 47 47 51 56 57 59 63 66 70 75 77 74 79 80
30 32 39 40 41 40 37 34 30 27 26 28 30 32 32 34 43 42 52 63 57 60 59 47 47 51 48 49 52 62 69 70 67 66 68 73 76 75 78 82 77 83 87
37 33 35 36 36 33 31 28 28 28 25 23 19 24 27 33 39 48 55 59 57 70 56 51 51 32 39 63 68 71 74 75 75 75 77 79 81 79 75 77 77 78 80
39 33 29 35 40 29 28 28 29 26 26 27 22 27 33 35 37 38 42 50 65 57 54 52 40 33 50 63 66 70 74 75 78 78 79 80 81 81 83 84 85 86 82
36 35 31 26 25 28 30 26 24 23 27 24 25 25 23 23 27 31 35 42 49 48 59 43 43 71 72 76 74 75 74 73 75 75 74 76 77 78 79 80 80 78 75
37 36 36 33 33 30 29 30 24 20 18 15 15 17 20 23 26 30 34 38 43 51 51 66 75 80 83 86 84 81 80 79 76 75 75 75 74 75 71 69 71 74 76
45 45 45 35 33 30 26 20 15 13 11 12 14 18 21 25 30 34 38 42 45 52 63 78 78 82 84 84 83 81 80 77 78 78 77 73 69 68 63 62 62 64 65
41 36 33 30 27 24 20 16 12 10 10 13 17 21 26 31 35 40 44 48 53 55 62 75 78 78 80 81 82 81 80 79 81 82 83 71 66 65 58 74 69 64 65
39 37 32 30 27 23 17 12 9 10 15 19 23 26 30 36 40 44 46 48 51 53 56 64 74 75 76 79 85 84 87 88 87 84 75 84 78 81 68 63 59 58 60
39 38 36 31 25 18 12 9 10 14 18 20 24 30 34 36 38 39 40 43 45 50 54 60 66 72 76 79 80 91 99 91 94 92 76 78 83 74 53 53 57 60 61
44 40 34 28 21 15 11 10 13 16 19 24 28 30 30 32 32 34 37 42 47 51 55 59 64 70 76 81 82 85 89 95 93 74 76 91 84 66 65 59 61 64 64
43 37 32 25 19 13 11 15 17 20 23 25 25 26 25 25 28 32 37 41 44 49 52 54 57 65 69 71 77 78 82 85 87 84 96 89 73 68 66 60 54 59 69
40 36 29 22 16 13 15 18 21 23 24 23 20 18 20 26 31 37 42 47 49 50 50 48 58 59 65 65 71 73 77 80 78 80 71 81 69 74 59 40 59 57 52
37 32 25 20 16 15 18 20 22 22 21 18 15 19 24 30 37 44 48 49 51 52 53 55 54 54 52 61 58 58 66 69 71 67 59 64 73 69 45 38 57 45 44
36 29 24 18 17 19 21 22 22 21 16 15 17 22 28 33 38 43 48 51 54 55 53 50 48 48 54 49 47 52 60 63 72 71 48 54 64 58 41 47 53 41 39
34 28 22 22 22 22 23 23 21 18 16 18 22 29 37 41 44 45 47 52 58 60 60 60 59 57 51 49 42 39 49 54 56 62 49 60 49 51 39 50 48 51 38
Wind_Direction_850mb
184 153 111 106 96 93 78 55 7 356 359 11 13 23 30 28 11 3 358 355 353 351 349 345 342 340 339 337 334 330 327 323 321 318 312 308 306 304 299 290 287 284 276
226 232 239 245 242 246 265 304 322 341 346 349 349 359 356 350 343 339 338 339 339 339 337 334 331 328 325 317 314 315 318 320 318 320 319 317 316 316 311 301 293 284 272
236 241 241 252 262 270 280 285 289 302 317 322 320 318 321 321 323 326 327 330 332 331 328 326 322 319 316 313 306 303 303 302 300 303 306 306 307 305 304 305 302 296 281
245 248 250 255 259 265 273 283 287 291 295 297 296 299 308 312 315 317 319 321 322 322 323 318 319 318 314 313 310 306 299 298 296 293 293 297 292 299 297 293 291 295 289
251 253 255 254 259 261 267 277 288 293 292 294 296 299 304 313 319 315 313 315 318 319 321 323 317 315 312 308 307 306 302 297 294 292 292 290 290 293 281 276 287 285 281
255 260 263 260 260 267 280 291 294 302 308 304 300 304 306 309 302 306 312 318 323 317 315 316 314 322 312 310 308 307 306 303 301 301 297 294 294 294 289 284 295 291 270
253 258 262 267 270 285 292 285 292 297 299 301 305 302 298 301 307 314 327 323 316 321 320 324 314 319 315 313 305 303 304 304 299 297 298 296 294 293 293 294 286 289 303
254 257 259 265 270 273 276 280 285 292 296 296 299 311 308 310 316 317 318 327 330 325 324 325 326 321 321 315 312 306 303 300 299 298 294 289 289 290 291 286 287 285 283
256 259 263 264 267 271 273 277 279 277 281 287 294 300 299 308 301 319 321 321 315 317 319 319 321 318 318 314 310 307 306 303 301 300 298 297 294 292 292 291 290 286 285
251 255 260 263 263 265 269 274 280 288 286 289 296 297 305 303 306 311 313 310 314 316 314 320 321 325 324 324 321 320 317 308 304 302 305 297 294 292 291 293 293 292 288
254 250 250 252 255 257 261 263 272 276 286 289 295 302 299 300 309 320 317 314 311 313 317 325 328 332 329 326 323 319 324 323 316 312 307 303 301 297 295 293 292 290 288
249 250 250 251 252 256 262 265 266 272 279 281 277 280 288 303 303 306 305 309 314 321 321 337 333 331 325 325 324 319 317 317 317 307 300 296 296 293 291 292 292 290 290
252 256 253 250 251 252 253 258 265 269 267 269 271 291 291 291 297 301 304 310 314 320 330 335 339 328 324 326 322 319 318 318 316 312 310 306 306 304 299 296 290 289 289
248 245 244 242 250 249 255 259 263 256 277 279 277 280 286 291 298 308 315 318 319 323 328 337 340 327 314 323 321 317 316 316 314 313 310 307 305 303 297 293 294 292 289
243 242 231 231 244 248 255 243 244 253 260 269 273 282 293 303 310 313 318 325 327 323 320 333 320 317 324 326 326 324 323 321 319 317 314 310 308 303 300 296 295 296 294
233 234 235 237 239 228 226 239 246 248 256 267 280 293 306 311 317 320 322 323 322 319 312 314 323 328 330 331 333 332 331 329 329 327 325 324 319 315 310 300 294 295 293
231 233 236 218 219 225 224 222 222 237 258 280 302 312 317 321 324 324 325 325 324 321 319 321 327 329 330 332 333 333 333 333 333 335 330 327 323 324 318 317 314 302 297
226 215 201 202 199 198 198 206 222 251 286 303 308 316 322 325 327 329 329 329 330 331 328 326 329 331 334 334 333 333 335 337 335 336 336 331 333 326 324 320 315 311 306
196 189 188 188 190 192 197 214 245 282 298 311 318 320 328 331 332 334 336 335 332 332 331 329 330 333 334 336 335 335 336 336 338 339 337 339 333 331 330 323 322 322 317
189 184 184 189 190 195 209 237 276 299 306 313 324 328 330 332 333 333 334 333 334 333 334 332 333 334 337 337 335 335 333 336 335 339 334 334 336 338 338 335 327 321 324
184 186 189 188 191 200 226 268 288 300 315 323 325 327 328 329 333 336 337 339 338 335 336 336 335 334 336 335 337 335 332 332 333 334 329 334 338 343 345 339 332 332 329
188 188 188 191 199 219 261 286 299 308 314 315 317 322 328 333 337 336 337 337 336 336 337 335 333 332 332 334 333 332 330 326 326 331 332 331 343 344 346 340 340 338 335
190 191 192 199 217 247 273 289 297 301 303 303 308 318 327 329 332 333 333 335 337 337 334 329 328 331 329 330 328 326 318 319 320 327 335 330 344 341 347 348 349 351 356
193 197 202 216 239 265 278 282 285 288 290 298 307 318 324 327 331 330 330 333 334 334 333 329 325 325 323 320 322 312 316 323 326 334 338 328 346 342 356 1 355 360 6
200 206 215 232 252 260 269 273 276 280 284 293 314 321 325 328 328 329 329 330 332 332 329 327 324 318 317 318 318 318 327 328 328 335 339 334 348 347 4 5 358 1 2
207 215 229 241 248 256 264 269 270 267 279 297 311 322 329 333 334 335 334 334 334 333 330 328 323 321 324 325 326 320 323 320 322 328 334 334 354 360 344 353 357 7 1